SUD016 RPLL-VVTS

Flight info

Callsign SUD016
Flight time N/A
Altitude 36000
Route BETEL2R BETEL M765 NOBEN/N0451F340 M765 PANDI/K0835F360 N500 PTH DCT DALAP DALAP2G
Aircraft A320/M-SDE3FGHIRWY/LB1

Departure

Time 2026-05-01 14:40
Airport Ninoy Aquino International Airport (RPLL)

Arrival

Time N/A
Airport Tan Son Nhat International Airport (VVTS)
Time Latitude Longitude Altitude Speed Heading
2026-05-01 14:06 14.50371 121.00476 41 ft 0 kts 308°
2026-05-01 14:33 14.50368 121.00479 41 ft 2 kts 308°
2026-05-01 14:34 14.50359 121.00491 39 ft 2 kts 323°
2026-05-01 14:34 14.50348 121.00502 40 ft 2 kts 311°
2026-05-01 14:34 14.50338 121.00514 39 ft 2 kts 311°
2026-05-01 14:34 14.50330 121.00527 40 ft 2 kts 285°
2026-05-01 14:35 14.50325 121.00542 40 ft 2 kts 258°
2026-05-01 14:35 14.50325 121.00546 40 ft 0 kts 244°
2026-05-01 14:36 14.50297 121.00500 40 ft 16 kts 238°
2026-05-01 14:36 14.50244 121.00410 39 ft 8 kts 240°
2026-05-01 14:36 14.50193 121.00341 39 ft 10 kts 210°
2026-05-01 14:36 14.50167 121.00339 38 ft 0 kts 171°
2026-05-01 14:37 14.50128 121.00333 38 ft 11 kts 206°
2026-05-01 14:37 14.50063 121.00236 37 ft 22 kts 240°
2026-05-01 14:37 14.49975 121.00078 36 ft 17 kts 239°
2026-05-01 14:37 14.49929 120.99998 36 ft 5 kts 239°
2026-05-01 14:38 14.49897 120.99971 35 ft 0 kts 198°
2026-05-01 14:38 14.49865 120.99974 35 ft 10 kts 161°
2026-05-01 14:38 14.49808 121.00019 35 ft 13 kts 118°
2026-05-01 14:38 14.49841 121.00115 36 ft 17 kts 59°
2026-05-01 14:39 14.49883 121.00192 33 ft 1 kts 62°
2026-05-01 14:39 14.49963 121.00337 35 ft 62 kts 60°
2026-05-01 14:39 14.50311 121.00968 44 ft 137 kts 60°
2026-05-01 14:39 14.50869 121.01957 340 ft 168 kts 60°
2026-05-01 14:40 14.51456 121.03027 1013 ft 174 kts 62°
2026-05-01 14:40 14.52054 121.04114 1904 ft 176 kts 61°
2026-05-01 14:40 14.52699 121.05280 2484 ft 200 kts 62°
2026-05-01 14:40 14.53429 121.06603 3083 ft 225 kts 63°
2026-05-01 14:41 14.54245 121.08080 3708 ft 246 kts 62°
2026-05-01 14:41 14.55090 121.09600 4310 ft 249 kts 62°
2026-05-01 14:41 14.55961 121.11160 4916 ft 253 kts 62°
2026-05-01 14:41 14.57010 121.12630 5516 ft 259 kts 41°
2026-05-01 14:42 14.58655 121.13416 6127 ft 267 kts
2026-05-01 14:42 14.60528 121.13484 6721 ft 273 kts 359°
2026-05-01 14:42 14.62379 121.12976 7312 ft 283 kts 332°
2026-05-01 14:42 14.63870 121.11622 7913 ft 293 kts 306°
2026-05-01 14:43 14.64669 121.09675 8519 ft 301 kts 279°
2026-05-01 14:43 14.64660 121.07510 9145 ft 305 kts 258°
2026-05-01 14:43 14.63904 121.05461 9780 ft 308 kts 240°
2026-05-01 14:43 14.62880 121.03497 10359 ft 312 kts 240°
2026-05-01 14:44 14.61834 121.01516 10945 ft 316 kts 240°
2026-05-01 14:44 14.59702 120.97488 12140 ft 323 kts 240°
2026-05-01 14:44 14.58623 120.95444 12758 ft 325 kts 240°
2026-05-01 14:45 14.57541 120.93389 13346 ft 327 kts 240°
2026-05-01 14:45 14.55372 120.89256 14505 ft 328 kts 240°
2026-05-01 14:45 14.54285 120.87185 15080 ft 328 kts 240°
2026-05-01 14:46 14.53198 120.85116 15668 ft 328 kts 240°
2026-05-01 14:46 14.51040 120.81013 16872 ft 321 kts 240°
2026-05-01 14:46 14.49981 120.79004 17492 ft 319 kts 240°
2026-05-01 14:47 14.48924 120.76995 18003 ft 322 kts 240°
2026-05-01 14:47 14.47831 120.74918 18125 ft 337 kts 240°
2026-05-01 14:47 14.46687 120.72746 18249 ft 351 kts 240°
2026-05-01 14:48 14.44262 120.68142 18475 ft 379 kts 240°
2026-05-01 14:48 14.42999 120.65748 18587 ft 391 kts 240°
2026-05-01 14:48 14.40338 120.60707 19075 ft 406 kts 241°
2026-05-01 14:49 14.37628 120.55576 19998 ft 408 kts 240°
2026-05-01 14:49 14.34901 120.50414 20836 ft 412 kts 240°
2026-05-01 14:50 14.33067 120.46936 21418 ft 414 kts 240°
2026-05-01 14:50 14.29389 120.39969 22558 ft 418 kts 240°
2026-05-01 14:51 14.27994 120.37336 22974 ft 419 kts 240°
2026-05-01 14:51 14.25187 120.32046 23721 ft 422 kts 240°
2026-05-01 14:52 14.22369 120.26726 24386 ft 424 kts 241°
2026-05-01 14:52 14.20956 120.24057 24673 ft 426 kts 241°
2026-05-01 14:52 14.18112 120.18678 25303 ft 427 kts 242°
2026-05-01 14:53 14.16903 120.15897 25762 ft 424 kts 247°
2026-05-01 14:53 14.15798 120.13090 26224 ft 421 kts 247°
2026-05-01 14:53 14.14702 120.10302 26696 ft 418 kts 247°
2026-05-01 14:53 14.13610 120.07535 27177 ft 415 kts 247°
2026-05-01 14:54 14.12526 120.04796 27667 ft 411 kts 247°
2026-05-01 14:54 14.11450 120.02081 28164 ft 408 kts 247°
2026-05-01 14:54 14.10382 119.99390 28674 ft 404 kts 247°
2026-05-01 14:54 14.09325 119.96725 29177 ft 400 kts 247°
2026-05-01 14:55 14.08277 119.94084 29707 ft 396 kts 247°
2026-05-01 14:55 14.07229 119.91445 29892 ft 402 kts 247°
2026-05-01 14:55 14.06164 119.88751 29931 ft 410 kts 247°
2026-05-01 14:56 14.03971 119.83210 29926 ft 424 kts 247°
2026-05-01 14:56 14.01746 119.77616 29922 ft 426 kts 247°
2026-05-01 14:57 13.99506 119.71976 29923 ft 426 kts 247°
2026-05-01 14:57 13.96124 119.63494 29922 ft 428 kts 247°
2026-05-01 14:58 13.93875 119.57834 29922 ft 427 kts 247°
2026-05-01 14:58 13.91620 119.52169 29918 ft 427 kts 247°
2026-05-01 14:59 13.89366 119.46512 29919 ft 427 kts 247°
2026-05-01 14:59 13.87111 119.40852 29916 ft 427 kts 247°
2026-05-01 15:00 13.83721 119.32377 29915 ft 427 kts 247°
2026-05-01 15:01 13.81465 119.26731 29915 ft 427 kts 247°
2026-05-01 15:01 13.79204 119.21086 29910 ft 427 kts 248°
2026-05-01 15:02 13.76946 119.15445 29912 ft 426 kts 248°
2026-05-01 15:02 13.74696 119.09804 29910 ft 426 kts 247°
2026-05-01 15:03 13.72428 119.04167 29896 ft 427 kts 247°
2026-05-01 15:03 13.70157 118.98524 29898 ft 427 kts 247°
2026-05-01 15:04 13.67891 118.92874 29908 ft 427 kts 248°
2026-05-01 15:04 13.65621 118.87225 29908 ft 428 kts 248°
2026-05-01 15:05 13.63345 118.81580 29912 ft 428 kts 248°
2026-05-01 15:05 13.61074 118.75930 29911 ft 427 kts 248°
2026-05-01 15:06 13.58805 118.70283 29907 ft 427 kts 248°
2026-05-01 15:06 13.56529 118.64638 29909 ft 427 kts 248°
2026-05-01 15:07 13.54638 118.59954 29912 ft 427 kts 248°
2026-05-01 15:07 13.52361 118.54319 29911 ft 427 kts 248°
2026-05-01 15:08 13.49714 118.47779 29919 ft 426 kts 248°
2026-05-01 15:08 13.47810 118.43070 29917 ft 426 kts 248°
2026-05-01 15:09 13.45536 118.37448 29912 ft 426 kts 248°
2026-05-01 15:09 13.43259 118.31830 29909 ft 426 kts 248°
2026-05-01 15:10 13.40994 118.26254 29914 ft 426 kts 248°
2026-05-01 15:10 13.37559 118.17798 29912 ft 426 kts 248°
2026-05-01 15:11 13.34167 118.09418 29914 ft 426 kts 248°
2026-05-01 15:12 13.31890 118.03808 29910 ft 425 kts 248°
2026-05-01 15:12 13.29614 117.98220 31278 ft 421 kts 247°
2026-05-01 15:12 13.28489 117.95458 30749 ft 419 kts 248°
2026-05-01 15:13 13.25137 117.87240 30008 ft 415 kts 248°
2026-05-01 15:14 13.22912 117.81774 30011 ft 415 kts 248°
2026-05-01 15:14 13.19567 117.73574 30002 ft 415 kts 248°
2026-05-01 15:15 13.15103 117.62646 30005 ft 415 kts 248°
2026-05-01 15:16 13.10629 117.51727 30003 ft 415 kts 248°
2026-05-01 15:18 13.05052 117.38091 30002 ft 415 kts 248°
2026-05-01 15:19 13.00580 117.27194 30001 ft 414 kts 248°
2026-05-01 15:19 12.97223 117.19022 29999 ft 414 kts 248°
2026-05-01 15:20 12.93866 117.10857 29999 ft 414 kts 248°
2026-05-01 15:21 12.91623 117.05418 30000 ft 414 kts 248°
2026-05-01 15:21 12.89378 116.99981 30000 ft 414 kts 248°
2026-05-01 15:22 12.86034 116.91858 30000 ft 414 kts 248°
2026-05-01 15:22 12.83791 116.86423 30000 ft 414 kts 248°
2026-05-01 15:23 12.81545 116.80988 30000 ft 414 kts 248°
2026-05-01 15:23 12.79297 116.75559 29998 ft 414 kts 248°
2026-05-01 15:24 12.77052 116.70130 29999 ft 414 kts 248°
2026-05-01 15:24 12.74811 116.64695 29999 ft 414 kts 248°
2026-05-01 15:25 12.72571 116.59266 29999 ft 414 kts 248°
2026-05-01 15:25 12.70321 116.53843 29999 ft 414 kts 248°
2026-05-01 15:26 12.68074 116.48420 30000 ft 414 kts 247°
2026-05-01 15:26 12.65820 116.42999 29999 ft 414 kts 247°
2026-05-01 15:27 12.63567 116.37580 29998 ft 414 kts 248°
2026-05-01 15:28 12.60198 116.29449 29998 ft 414 kts 248°
2026-05-01 15:28 12.57946 116.24030 29998 ft 413 kts 247°
2026-05-01 15:29 12.54560 116.15912 29999 ft 413 kts 247°
2026-05-01 15:30 12.50050 116.05091 29997 ft 413 kts 247°
2026-05-01 15:31 12.43274 115.88876 29997 ft 413 kts 247°
2026-05-01 15:32 12.38777 115.78111 29992 ft 412 kts 247°
2026-05-01 15:34 12.32004 115.61926 29996 ft 413 kts 247°